Location: Orange Harbor Mobile Home Park
(26.6923°N, 81.7937°W)
Time: 22:03:44
(UTC+00:00)

SJ 16-02 - Pass Details

Date: 19 September 2020
Orbit: 606 x 616 km, 75.0° (Epoch: 25 October)

Event Time Altitude Azimuth Distance (km) Brightness Sun altitude
Rises 10:35:18 0° 333° (NNW) 2,868 4.6 -9.6°
Reaches altitude 10° 10:37:42 10° 324° (NW) 1,963 3.6 -9.1°
Maximum altitude 10:41:37 33° 260° (W) 1,029 2.0 -8.2°
Drops below altitude 10° 10:45:33 10° 196° (SSW) 1,960 3.7 -7.3°
Sets 10:47:57 0° 187° (S) 2,862 4.7 -6.8°
